STARLINK-5060 (55413 NORAD) Tracking and Keplerian Element Data

This shows tracking and keplerian element data for the satellite.

Feedback or suggestion? Click here.




ElementValue
Catalog55413
NameSTARLINK-5060
Epoch Orbit1517
Epoch Day127.25001157
Epoch Year2023
RAAN182.1225
Inclination69.9989
Eccentricity0.0003309
Argument of Perigee269.499
Mean Anonmoly165.3699
Mean Motion15.43775375
Decay Rate-0.00965655
L11 55413U 23014Y 23127.25001157 -.00965655 00000+0 -23254-1 0 9998
L22 55413 69.9989 182.1225 0003309 269.4990 165.3699 15.43775375 15175



Live tracking and technical data element details for STARLINK-5060 (NORAD 55413). STARLINK-5060 can be tracked NOW for your location showing map with azimuth and elevation plus other details from your city location.







IsCatalogInMostPopularTable: catalog: 55413, numindb: 1
Update: records affected: 1



GetName: 55413 STARLINK-5060

Hit Count: updated at: Mon, 05 Jun 2023 19:18:49 GMT